Location: �couen
(49.0206°N, 2.3831°E)
Time: 07:04:08
(UTC+00:00)

Cosmos 1758 - Pass Details

Date: 02 June 2022
Orbit: 538 x 557 km, 82.5° (Epoch: 03 July)

Event Time Altitude Azimuth Distance (km) Brightness Sun altitude
Rises 21:41:32 0° 2° (N) 2,720 7.9 -13.3°
Reaches altitude 10° 21:44:08 10° 19° (NNE) 1,826 6.6 -13.5°
Maximum altitude 21:47:11 20° 68° (ENE) 1,285 5.1 -13.7°
Enters shadow 21:49:18 14° 107° (ESE) 1,567 5.2 -13.9°
